Volver al catálogo

SL-8 DEB

ActivoLEO
NORAD 27748·DEBRIS·🇷🇺 Russia

Lanzado Feb 12, 1991 desde Plesetsk Cosmodrome

Loading…

Próximos Pases (próximas 24 horas)

TLE

ActualizadoSource: Space-Track

Época: Sep 14, 2026, 00:33 UTC

1 27748U 91009DD  26257.02339597  .00000051  00000-0  60769-3 0  9994
2 27748  74.0486 116.0288 0174629 171.7861 340.9925 12.19647137304465

Sigue SL-8 DEB en tiempo real con AllMySat

Download on the App Store